STARLINK-33793, 64165

Orbit data source: Space-Track

STARLINK-33793, 64165 is a payload satellite owned by SpaceX/Seattle (US) in SSO that was launched on Tue, 27 May 2025 UTC via an FALCON 9 launch vehicle from the Air Force Western Test Range (AFWTR). Payload-class satellites include a variety of spacecraft equipped with specific instruments for various scientific and technological missions. These include communications satellites like Starlink; space stations such as the ISS; scientific satellites like the Hubble; Earth observation satellites from companies like Planet Labs, Umbra, and HawkEye 360; GPS; miniature CubeSats for education and research; and military/defense satellites.

Loading next visibility...
Identifier
64165, 2025-112V
Orbit
SSO
Country
Flag of USUS
Related business
Manufacturer
SpaceX/Seattle
Mission
Operational Commercial Communications
Bus & Motor
STARLINK V2MO, Unknown motor
Mass
575 kg wet, ~530 kg dry
Launch date (UTC)
2025-05-27 (1 year ago)
Launch vehicle
FALCON 9
Launch site
Air Force Western Test Range (AFWTR)
Object type
Payload
Rocket body
Debris
Shape & HBR
Box + 2 Pan, 17.7 m
Radar Cross Section
36.964 m², Large (>1 m²)

Expand to show TLE details & history
Last TLE update: 8 hours ago

TLE from 8 hours ago
0 STARLINK-33793
1 64165U 25112V   26145.41722345  .00010060  00000-0  70003-3 0  9999
2 64165  97.4482 196.7848 0001543 129.9596 230.1767 15.05665575 54858
Epoch: 2026-05-25T10:00Z
TLE epoch observation values (Epoch: 2026-05-25T10:00:48.106Z)
Latitude
0.00001°
Longitude
163.57904°
Altitude
553.218 km
Speed
7.585 km/s
True Right ascension
13h 07m 08s
True Declination
0° 00' 00"
Sunlit
Object was in full shadow at epoch
Visualization orbit readout
Latitude
Unknown
Longitude
Unknown
Altitude
Unknown
Speed
Unknown
Apparent Right ascension
Unknown
Apparent Declination
Unknown
Sunlit
N/A
Visualization observer readout
Local Sidereal Time
02:49:50
Azimuth
Unknown
Elevation
Unknown
Doppler factor
Unknown
Orbital elements
Apogee altitude
547.519 km
Perigee altitude
545.382 km
Semi-major axis
6,924.587 km
Eccentricity
0.00015
Inclination
97.4482°
RAAN
196.7848°
Arg. of periapsis
129.9596°
True anomaly
230.16312°
Mean anomaly
230.1767°
Eccentric anomaly
230.16991°
Mean motion
3.76662 °/min
Orbital period
95.58 mins
BSTAR
0.00070003
Loading maneuver chart data...
Computing Atmospheric mass density...
Loading historical data...
Loading historical data...
Loading historical data...
Loading historical data...
Loading historical data...
Loading historical data...
Loading historical data...

Documentation

Showing up to 5 results
|